Flag for Germany Weather past 2 weeks in Jena, Thuringia, Germany

Now
68 °F

Partly sunny.


Feels Like: 68 °F
Forecast: 63 / 80 °F
Wind: 2 mph from North

Location: Erfurt-Bindersleben

Current Time: Jul 28, 2014 at 11:29:32 AM

Latest Report: Jul 28, 2014 at 10:50 AM


Visibility: N/A

Pressure: 29.95 "Hg

Humidity: 83%

Dew point: 63 °F

Location of JenaLocation

Historic Weather in Jena — Graph

°F

Jena temperature yesterday

Maximum temperature yesterday: 81 °F (at 2:20 PM)
Minimum temperature yesterday: 59 °F (at 2:50 AM)
Average temperature yesterday: 66 °F

Past Weeks' High & Low Weather Summary

 TemperatureHumidityPressure
High88 °F (Jul 19, 3:20 PM)100% (Jul 15, 4:50 AM)30.21 "Hg (Jul 15, 4:50 AM)
Low55 °F (Jul 15, 4:20 AM)25% (Jul 19, 6:20 PM)29.77 "Hg (Jul 13, 1:20 PM)
Average69 °F70%30.00 "Hg
* Reported Jul 13 10:20 AM — Jul 28 10:20 AM, Jena, Weather by CustomWeather, © 2014

Note: Actual official high and low records may vary slightly from our data, if they occured in-between our weather recording intervals... More about our weather records

Advertising

Jena weather history for previous 24 hours

 ConditionsComfort  
Time TempWeatherWind HumidityBarometerVisibility
10:20 AM
Jul 28
66 °FPartly sunny.1 mph88%29.95 "HgN/A
9:50 AM66 °FPartly sunny.1 mph83%29.95 "HgN/A
9:20 AM64 °FSunny.1 mph88%29.95 "Hg10 mi
8:50 AM64 °FSunny.2 mph88%29.95 "Hg10 mi
8:20 AM63 °FSunny.3 mph94%29.95 "Hg10 mi
7:50 AM63 °FSunny.3 mph88%29.95 "Hg10 mi
7:20 AM61 °FSunny.5 mph94%29.95 "Hg10 mi
6:50 AM59 °FSunny.3 mph100%29.95 "Hg10 mi
6:20 AM57 °FLight fog.6 mph100%29.95 "HgN/A
5:50 AM55 °FFog.6 mph100%29.95 "Hg0 mi
5:20 AM57 °FFog.8 mph94%29.95 "Hg0 mi
4:20 AM59 °FClear.3 mph94%29.95 "Hg10 mi
3:50 AM59 °FClear.6 mph94%29.98 "Hg10 mi
3:20 AM59 °FFog.5 mph94%29.98 "HgN/A
2:50 AM61 °FFog.2 mph94%29.98 "HgN/A
2:20 AM61 °FFog.1 mph94%29.98 "HgN/A
1:50 AM61 °FClear.1 mph94%29.98 "Hg10 mi
1:20 AM61 °FClear.3 mph94%29.98 "Hg10 mi
12:50 AM63 °FClear.5 mph94%29.98 "Hg10 mi
12:20 AM63 °FClear.3 mph94%30.01 "Hg10 mi
11:50 PM
Jul 27
64 °FClear.5 mph88%30.01 "Hg10 mi
11:20 PM63 °FClear.5 mph94%30.01 "Hg10 mi
10:50 PM64 °FClear.2 mph88%30.01 "Hg10 mi
10:20 PM64 °FClear.3 mph88%30.01 "Hg10 mi
9:50 PM64 °FBroken clouds.1 mph88%29.98 "HgN/A
9:20 PM64 °FBroken clouds.2 mph88%29.98 "HgN/A
8:50 PM64 °FBroken clouds.5 mph88%29.98 "HgN/A
8:20 PM66 °FPartly sunny.8 mph83%29.98 "HgN/A
7:50 PM66 °FPartly sunny.8 mph83%30.01 "HgN/A
7:20 PM64 °FPartly sunny.8 mph88%29.98 "HgN/A
6:50 PM64 °FPartly sunny.12 mph88%29.98 "HgN/A
6:20 PM66 °FLight rain. Clear.9 mph88%29.98 "HgN/A
5:50 PM68 °FSprinkles. Partly sunny.3 mph83%29.95 "HgN/A
5:20 PM66 °FSprinkles. Broken clouds.3 mph88%29.95 "HgN/A
4:50 PM66 °FThunderstorms. Partly sunny.5 mph83%29.95 "HgN/A
4:20 PM66 °FStrong thunderstorms. Partly sunny.8 mph83%29.98 "Hg5 mi
3:50 PM70 °FThunderstorms. Partly sunny.12 mph78%29.98 "Hg5 mi
3:20 PM79 °FThunderstorms. Partly sunny.5 mph54%29.95 "HgN/A
2:50 PM81 °FBroken clouds.3 mph54%29.95 "HgN/A
2:20 PM81 °FPassing clouds.1 mph54%29.95 "HgN/A
1:50 PM79 °FPartly sunny.2 mph65%29.98 "HgN/A
1:20 PM77 °FPartly sunny.1 mph61%29.98 "HgN/A
12:50 PM77 °FPartly sunny.1 mph61%29.98 "HgN/A
12:20 PM75 °FPartly sunny.3 mph69%29.98 "HgN/A
11:50 AM75 °FPartly sunny.2 mph69%29.98 "HgN/A
11:20 AM73 °FPartly sunny.2 mph74%29.98 "HgN/A
Weather by CustomWeather, © 2014

See weather overviewHow to use our weather pages